Overview Statistics Trail Chart Weather Telemetry Raw packets
 

This is the latest recevied weather packets stored in our database for station/object KC2GYU. If no packets are shown the sender has not sent any weather packets the latest 10 day(s).

<< 46 47 48 49 50 51 52 >>
Time Temp. Humidity Pressure Rain* Wind** Luminosity Snow
1777767209 12.22° C 62% 1010.9 hPa 0 mm - 0 W/m² -
1777766906 12.22° C 61% 1010.9 hPa 0 mm - 0 W/m² -
1777766604 12.22° C 59% 1010.8 hPa 0 mm - 0 W/m² -
1777766301 12.78° C 61% 1010.8 hPa 0 mm - 0 W/m² -
1777765998 12.78° C 58% 1011.1 hPa 0 mm - 1 W/m² -
1777765694 12.78° C 57% 1010.8 hPa 0 mm - 1 W/m² -
1777765392 13.33° C 57% 1010.8 hPa 0 mm - 3 W/m² -
1777765088 13.33° C 56% 1011 hPa 0 mm - 5 W/m² -
1777764784 13.33° C 55% 1011 hPa 0 mm - 6 W/m² -
1777764481 13.33° C 58% 1010.9 hPa 0 mm - 9 W/m² -
1777764178 13.33° C 57% 1010.8 hPa 0 mm - 12 W/m² -
1777763874 13.89° C 55% 1011.1 hPa 0 mm - 14 W/m² -
1777763572 13.89° C 56% 1011.1 hPa 0 mm - 14 W/m² -
1777763270 13.89° C 58% 1011 hPa 0 mm - 17 W/m² -
1777762968 13.89° C 56% 1011.1 hPa 0 mm - 19 W/m² -
1777762664 13.89° C 59% 1010.7 hPa 0 mm - 19 W/m² -
1777762361 14.44° C 56% 1010.9 hPa 0 mm - 24 W/m² -
1777762058 14.44° C 54% 1010.8 hPa 0 mm - 24 W/m² -
1777761754 14.44° C 54% 1011 hPa 0 mm - 29 W/m² -
1777761452 14.44° C 54% 1010.9 hPa 0 mm - 32 W/m² -
1777761150 14.44° C 54% 1011 hPa 0 mm - 29 W/m² -
1777760847 15° C 55% 1011.1 hPa 0 mm - 36 W/m² -
1777760544 15° C 57% 1010.7 hPa 0 mm - 42 W/m² -
1777760240 15° C 55% 1011 hPa 0 mm - 46 W/m² -
1777759937 15° C 54% 1010.8 hPa 0 mm - 57 W/m² -

* Rain latest hour (hover to see other rain measurements)
** Current wind speed in m/s (hover to see current wind gust speed)